Simultaneous Nadir Overpasses (SNOs) Predictions

Prediction of SNOs between GOES-16 and NOAA-20 Satellite Orbit:

Table of predicted SNOs for the next 14.0 days since TLE Epoch: 5/25/2019
Index Date Time (GOES-16) GOES-16 Lat,Lon NOAA-20 Lat,Lon Distance(km) Time Diff (sec)
1 05/25/2019 18:33:03 0.02, -75.19 -0.45, -77.29 239.20 80
2 05/26/2019 18:16:58 0.00, -75.20 0.53, -72.75 278.08 80
3 05/28/2019 06:38:45 0.00, -75.20 0.64, -78.02 321.91 80
4 05/29/2019 06:17:20 0.01, -75.21 -0.35, -73.49 195.42 80
5 05/30/2019 18:39:16 0.00, -75.22 -0.80, -78.80 407.07 80
6 05/31/2019 18:23:11 0.01, -75.24 0.25, -74.27 110.45 80
7 06/02/2019 06:44:59 -0.01, -75.25 0.93, -79.54 489.03 80
8 06/03/2019 06:23:33 -0.01, -75.26 -0.06, -75.00 28.56 80
9 06/05/2019 18:26:44 0.01, -75.29 -0.09, -75.78 55.73 80
10 06/06/2019 18:10:39 0.00, -75.30 0.90, -71.24 462.28 80




NCC Satellite Simultaneous Nadir Overpasses (SNOs) Prediction Service
